STARLINK-31745, 60329

Orbit data source: Space-Track

STARLINK-31745, 60329 is a payload satellite owned by SpaceX/Seattle (US) in LEO that was launched on Fri, 02 Aug 2024 UTC via an FALCON 9 launch vehicle from the Air Force Eastern Test Range (AFETR). Payloads include a variety of satellites, spacecraft, and rockets equipped with specific instruments for various scientific and technological missions. These include communications satellites like Starlink; space stations such as the ISS; scientific satellites like the Hubble; Earth observation satellites from companies like Planet Labs, Umbra, and HawkEye 360; GPS; miniature CubeSats for education and research; and military/defense satellites.

Loading next visibility...
STARLINK-31745 details
Identifier
60329, 2024-136A
Orbit
LEO
Last TLE update21 hours ago
Origin
Flag of USSpaceX/Seattle (US)
ManufacturerSpaceX/Seattle
MissionOperational spacecraft
Bus & MotorSTARLINK V2M, Unknown motor
Mass730 kg wet, ~700 kg dry
Launch date (UTC)
2024-08-02 (5 months ago)
Launch vehicle
FALCON 9
Launch site
Air Force Eastern Test Range (AFETR)
Object type
Payload
Rocket body
Debris
Shape & HBRUnknown
Radar Cross SectionLarge (>1 m²)

Expand to show TLE details & history

TLE from 21 hours ago
0 STARLINK-31745
1 60329U 24136A   24356.35619484 -.00000110  00000-0  83932-5 0  9999
2 60329  53.1627 335.2388 0001081  73.4206 286.6913 15.30198625 22997
Epoch: 2024-12-21T08:32Z
Definitive object data (Epoch: 2024-12-21T08:32:55.234Z)
Latitude-0.00004°
Longitude116.6001°
Altitude475.906 km
Speed7.629 km/s
True Right ascension22h 20m 57s
True Declination0° 00' 00"
Sunlit
Object was in daylight at TLE epoch
Visualization TLE readout
Latitude-36.61916°
Longitude-33.91859°
Altitude487.652 km
Speed7.621 km/s
Apparent Right ascension14h 29m 46s
Apparent Declination-43° 41' 13"
Sunlit
Object is in daylight
Visualization observer readout
Local Sidereal Time04:59:46
Azimuth110.164° ESE
Elevation-62.032°
Doppler factor1
Orbital elements
Apogee altitude476.216 km
Perigee altitude474.734 km
Semi-major axis6,853.612 km
Eccentricity0.0001081
Inclination53.1627°
RAAN335.2388°
Arg. of periapsis73.4206°
True anomaly286.67943°
Mean anomaly286.6913°
Eccentric anomaly286.68537°
Mean motion3.82529 °/min
BSTAR0.0000083932
Orbital period94.11 mins
Loading maneuver chart data...
Loading historical data...
Loading historical data...
Loading historical data...
Loading historical data...
Loading historical data...
Loading historical data...
Loading historical data...

STARLINK-31745 Visibility forecast

Observer location: undefined°, undefined

Span
Click to sort rows by Start time (UTC) header in descending order
Start Az.
Max El. time (UTC)
Max El. Az.
Max El.
End time (UTC)
End Az.
4 mins2024-12-22 06:57:06.591Z342.931° N2024-12-22 06:59:06.591Z23.697° NE20.185°2024-12-22 07:01:06.591Z65.711° ENE
5 mins2024-12-22 08:35:06.591Z300.206° NW2024-12-22 08:37:06.591Z249.493° W41.544°2024-12-22 08:40:06.591Z143.575° SSE
5 mins2024-12-23 01:31:06.591Z249.11° W2024-12-23 01:33:06.591Z350.81° N41.053°2024-12-23 01:36:06.591Z43.866° NE
|